Weather History for Monarch Pass, CO

Change the Weather History Date:

Sunday, March 10, 2013

  Actual Average (KGUC) Record (KGUC)
Temperature  
Mean Temperature 8 °F -  
Max Temperature 15 °F 38 °F 51 °F (2012)
Min Temperature 1 °F 13 °F -2 °F (1997)
Degree Days  
Heating Degree Days 57    
Moisture  
Dew Point 6 °F    
Average Humidity 87    
Maximum Humidity 93    
Minimum Humidity 78    
Precipitation  
Precipitation 0.00 in - - ()
Sea Level Pressure  
Sea Level Pressure 30.14 in    
Wind  
Wind Speed 16 mph (WSW)    
Max Wind Speed 28 mph    
Max Gust Speed 31 mph    
Averages and records for this station are not official NWS values.
T = Trace of Precipitation, MM = Missing Value Source: NWS Daily Summary

Daily Weather History Graph

Daily Weather History Graph

Search for Another Location

Airport:

Trip Planner

Search our weather history database for the weather conditions in past years. The results will help you decide how hot, cold, wet, or windy it might be!

Date:

Astronomy

Mar. 10, 2013 Rise Set
Actual Time 7:23 AM MDT 7:07 PM MDT
Civil Twilight 6:57 AM MDT 7:34 PM MDT
Nautical Twilight 6:26 AM MDT 8:04 PM MDT
Astronomical Twilight 5:55 AM MDT 8:35 PM MDT
Moon 6:24 AM MDT (3/10) 6:18 PM MDT (3/10)
Length of Visible Light 12h 36m
Length of Day
11h 44m
Waning Crescent, 1% of the Moon is Illuminated
Mar 10
Waning Crescent
Mar 11
New
Mar 19
First Quarter
Mar 27
Full
Apr 2
Last Quarter

Hourly Weather History & Observations

Time (MDT) Temp. Windchill Dew Point Humidity Pressure Visibility Wind Dir Wind Speed Gust Speed Precip Events Conditions
12:19 AM 10.4 °F - 6.8 °F 85% 29.99 in - North - - N/A   Overcast
12:39 AM 10.4 °F - 6.8 °F 85% 30.01 in - North - - N/A   Overcast
12:59 AM 8.6 °F - 5.0 °F 85% 30.02 in - North - - N/A   Overcast
1:19 AM 8.6 °F - 5.0 °F 85% 30.02 in - North - - N/A   Unknown
1:39 AM 6.8 °F - 3.2 °F 85% 30.02 in - North - - N/A   Overcast
1:59 AM 6.8 °F - 3.2 °F 85% 30.02 in - North - - N/A   Unknown
3:19 AM 5.0 °F - 3.2 °F 92% 30.02 in - North - - N/A   Unknown
3:39 AM 5.0 °F - 1.4 °F 85% 30.02 in - North - - N/A   Unknown
3:59 AM 3.2 °F - -0.4 °F 85% 30.02 in - North - - N/A   Unknown
4:19 AM 3.2 °F - -0.4 °F 85% 30.02 in - North - - N/A   Unknown
4:39 AM 3.2 °F - -0.4 °F 85% 30.02 in - North - - N/A   Unknown
4:59 AM 3.2 °F - -0.4 °F 85% 30.02 in - North - - N/A   Unknown
5:19 AM 3.2 °F - -0.4 °F 85% 30.04 in - North - - N/A   Unknown
5:39 AM 3.2 °F - -0.4 °F 85% 30.04 in - North - - N/A   Unknown
6:19 AM 3.2 °F - -0.4 °F 85% 30.04 in - North - - N/A   Unknown
6:39 AM 1.4 °F - -2.2 °F 85% 30.05 in - North - - N/A   Unknown
6:59 AM 1.4 °F - -2.2 °F 85% 30.05 in - North - - N/A   Unknown
7:19 AM 1.4 °F - -2.2 °F 85% 30.05 in - North - - N/A   Unknown
7:39 AM 1.4 °F - -2.2 °F 85% 30.06 in - North - - N/A   Unknown
7:59 AM 1.4 °F - -4.0 °F 78% 30.07 in - North - - N/A   Clear
8:19 AM 1.4 °F - -4.0 °F 78% 30.07 in - North - - N/A   Unknown
8:39 AM 1.4 °F - -4.0 °F 78% 30.07 in - North - - N/A   Unknown
8:59 AM 1.4 °F - -2.2 °F 85% 30.08 in - North - - N/A   Unknown
9:19 AM 1.4 °F - -2.2 °F 85% 30.09 in - North - - N/A   Unknown
9:39 AM 3.2 °F - -0.4 °F 85% 30.10 in - North - - N/A   Unknown
9:59 AM 3.2 °F - -0.4 °F 85% 30.10 in - North - - N/A   Unknown
10:19 AM 5.0 °F - 1.4 °F 85% 30.11 in - North - - N/A   Unknown
10:38 AM 5.0 °F - 1.4 °F 85% 30.11 in - North - - N/A   Unknown
10:59 AM 5.0 °F - 1.4 °F 85% 30.12 in - North - - N/A   Unknown
11:39 AM 8.6 °F - 3.2 °F 79% 30.13 in - North - - N/A   Unknown
11:58 AM 10.4 °F - 6.8 °F 85% 30.13 in - North - - N/A   Unknown
12:19 PM 10.4 °F - 6.8 °F 85% 30.14 in - North - - N/A   Unknown
12:39 PM 10.4 °F - 8.6 °F 92% 30.15 in - North - - N/A   Unknown
12:59 PM 10.4 °F - 8.6 °F 92% 30.15 in - North - - N/A   Unknown
1:19 PM 12.2 °F -3.7 °F 8.6 °F 85% 30.15 in - West 15.0 mph 18.4 mph N/A   Unknown
1:39 PM 12.2 °F - 8.6 °F 85% 30.15 in - North - - N/A   Mostly Cloudy
1:59 PM 12.2 °F - 10.4 °F 92% 30.16 in - North - - N/A   Mostly Cloudy
2:19 PM 12.2 °F -1.8 °F 10.4 °F 92% 30.16 in - WSW 11.5 mph - N/A   Unknown
2:37 PM 14.0 °F -0.2 °F 12.2 °F 93% 30.16 in - West 12.7 mph - N/A   Unknown
2:58 PM 14.0 °F -1.4 °F 10.4 °F 86% 30.17 in - West 15.0 mph - N/A   Unknown
3:19 PM 14.0 °F -5.1 °F 12.2 °F 93% 30.17 in - West 24.2 mph - N/A   Unknown
3:39 PM 14.0 °F -0.8 °F 12.2 °F 93% 30.17 in - WSW 13.8 mph - N/A   Unknown
3:58 PM 15.8 °F 0.9 °F 12.2 °F 86% 30.18 in - West 15.0 mph - N/A   Mostly Cloudy
4:19 PM 15.8 °F -0.6 °F 12.2 °F 86% 30.18 in - West 18.4 mph 26.5 mph N/A   Overcast
4:39 PM 15.8 °F -1.5 °F 12.2 °F 86% 30.18 in - WSW 20.7 mph 26.5 mph N/A   Mostly Cloudy
4:59 PM 15.8 °F -0.2 °F 12.2 °F 86% 30.19 in - WSW 17.3 mph 24.2 mph N/A   Mostly Cloudy
5:19 PM 15.8 °F 0.9 °F 12.2 °F 86% 30.19 in - SW 15.0 mph 25.3 mph N/A   Unknown
5:39 PM 14.0 °F -5.8 °F 12.2 °F 93% 30.19 in - West 26.5 mph 31.1 mph N/A   Unknown
5:59 PM 14.0 °F -6.2 °F 12.2 °F 93% 30.20 in - West 27.6 mph 31.1 mph N/A   Unknown
6:19 PM 14.0 °F - 12.2 °F 93% 30.21 in - North - - N/A   Mostly Cloudy
6:39 PM 14.0 °F - 10.4 °F 86% 30.21 in - North - - N/A   Unknown
6:59 PM 14.0 °F - 10.4 °F 86% 30.21 in - North - - N/A   Unknown
7:19 PM 12.2 °F - 10.4 °F 92% 30.23 in - North - - N/A   Mostly Cloudy
7:39 PM 12.2 °F - 10.4 °F 92% 30.24 in - North - - N/A   Mostly Cloudy
8:19 PM 12.2 °F - 10.4 °F 92% 30.25 in - North - - N/A   Unknown
8:39 PM 12.2 °F - 10.4 °F 92% 30.26 in - North - - N/A   Unknown
8:59 PM 12.2 °F - 8.6 °F 85% 30.25 in - North - - N/A   Unknown
9:19 PM 12.2 °F - 8.6 °F 85% 30.25 in - North - - N/A   Unknown
9:39 PM 12.2 °F - 10.4 °F 92% 30.26 in - North - - N/A   Unknown
9:59 PM 12.2 °F - 8.6 °F 85% 30.25 in - North - - N/A   Unknown
10:19 PM 12.2 °F - 8.6 °F 85% 30.26 in - North - - N/A   Unknown
10:39 PM 12.2 °F - 8.6 °F 85% 30.27 in - North - - N/A   Unknown
11:19 PM 10.4 °F - 8.6 °F 92% 30.26 in - North - - N/A   Unknown
11:39 PM 12.2 °F - 8.6 °F 85% 30.24 in - North - - N/A   Mostly Cloudy
11:59 PM 12.2 °F - 8.6 °F 85% 30.23 in - North - - N/A   Overcast
12:19 AM 12.2 °F - 8.6 °F 85% 30.23 in - North - - N/A   Overcast
12:59 AM 12.2 °F - 8.6 °F 85% 30.23 in - North - - N/A   Overcast